[[{"header":{"parameterUnit":"m.s-1","parameterCategory":1,"la1":30.2991,"la2":30.254,"lo1":-89.0895,"lo2":-89.0444,"dy":0.0017,"dx":0.0017,"nx":28,"ny":28,"refTime":"2025-01-31T09:00:00:Z","depth":0,"parameterNumber":2,"parameterNumberName":"U-component_of_WINDS"},"data":[0,0,0,0,0,0,0,0,0,0,0,0,0,0,0,0,0,0,0,0,0,0,0,0,0,0,0,0,0,0,0,0,0,0,0,0,0,0,0,0,0,0,0,0,0,0,0,0,0,0,0,0,0,0,0,0,0,0,-1.2579,-1.258,0,-1.2722,-1.2723,-1.2725,-1.2792,-1.2791,-1.2791,-1.2791,-1.2942,-1.2946,-1.295,0,0,0,0,0,0,0,0,0,0,0,0,0,-1.2368,-1.2371,-1.2579,-1.258,-1.2582,-1.2721,-1.2723,-1.2725,-1.2792,-1.2791,-1.2791,-1.2791,-1.2941,-1.2946,-1.2951,0,0,0,0,0,0,0,0,0,0,0,0,0,-1.248,-1.2372,-1.2578,-1.2632,-1.2638,-1.2721,-1.2723,-1.2726,-1.2792,-1.2791,-1.2791,-1.2791,-1.2939,-1.2945,-1.2951,-1.2993,0,0,-1.297,-1.2973,0,0,0,0,0,0,0,0,-1.2473,-1.2488,-1.2622,-1.2628,-1.2635,-1.2738,-1.2704,-1.2816,-1.2792,-1.2733,-1.2791,-1.2791,-1.2875,-1.2886,-1.2914,-1.3,-1.3007,-1.2971,-1.2975,-1.2977,-1.2979,0,0,0,0,0,0,0,-1.2466,-1.2482,-1.2635,-1.2624,-1.2632,-1.265,-1.2666,-1.2726,-1.2804,-1.2738,-1.2744,-1.2759,-1.2878,-1.2907,-1.2918,-1.3009,-1.2971,-1.2976,-1.298,-1.2982,-1.3138,-1.3138,0,0,0,0,0,0,-1.2448,-1.2475,-1.2631,-1.264,-1.2552,-1.2654,-1.2672,-1.2706,-1.2803,-1.2818,-1.2759,-1.2762,-1.2897,-1.291,-1.2923,-1.2979,-1.2977,-1.2983,-1.2987,-1.3138,-1.3138,-1.3139,0,0,0,0,0,0,-1.2444,-1.2462,-1.2625,-1.2559,-1.2581,-1.2658,-1.2695,-1.2709,-1.2738,-1.2819,-1.2833,-1.2774,-1.2897,-1.2915,-1.2975,-1.2985,-1.2986,-1.2991,-1.3137,-1.3138,-1.3138,-1.309,0,0,0,0,0,0,-1.2437,-1.246,-1.2475,-1.2558,-1.2584,-1.2673,-1.2696,-1.2711,-1.2748,-1.2752,-1.2837,-1.2851,-1.2899,-1.2965,-1.2981,-1.2994,-1.2996,-1.3137,-1.3137,-1.3138,-1.3092,-1.3089,-1.3088,0,0,0,0,0,-1.2429,-1.2457,-1.2475,-1.2494,-1.2605,-1.2673,-1.2688,-1.2741,-1.2748,-1.2765,-1.2817,-1.2848,-1.2981,-1.2971,-1.2989,-1.3004,-1.3136,-1.3137,-1.3138,-1.3092,-1.309,-1.3088,0,0,0,0,0,0,-1.2374,-1.2469,-1.249,-1.2545,-1.26,-1.2684,-1.2707,-1.2737,-1.2793,-1.2795,-1.286,-1.2879,-1.2933,-1.2975,-1.2962,-1.305,-1.3062,-1.3066,-1.3021,-1.3019,-1.3017,-1.3006,-1.3001,0,0,0,0,0,-1.2368,-1.2414,-1.2495,-1.2535,-1.2562,-1.2629,-1.2661,-1.2697,-1.2758,-1.2782,-1.2839,-1.2898,-1.2953,-1.2989,-1.3044,-1.3098,-1.3118,-1.3117,-1.3115,-1.3113,-1.3116,-1.3149,-1.315,-1.3142,-1.3142,-1.3142,0,0,-1.2356,-1.2414,-1.2439,-1.2526,-1.2573,-1.262,-1.2649,-1.2698,-1.2735,-1.279,-1.2851,-1.2894,-1.2965,-1.3022,-1.305,-1.3058,-1.3123,-1.3114,-1.3112,-1.3117,-1.315,-1.3151,-1.3151,-1.3142,-1.3142,-1.3142,0,0,-1.2359,-1.2407,-1.2446,-1.2492,-1.2563,-1.2608,-1.2617,-1.2696,-1.2727,-1.2788,-1.2831,-1.2877,-1.297,-1.3019,-1.3056,-1.3077,-1.3108,-1.3094,-1.3083,-1.3114,-1.3115,-1.3116,-1.3124,-1.3126,-1.3097,-1.3097,-1.3096,0,-1.2336,-1.2408,-1.2463,-1.2509,-1.2547,-1.2598,-1.2639,-1.2682,-1.2767,-1.2793,-1.28,-1.2919,-1.297,-1.304,-1.3045,-1.3073,-1.3087,-1.3084,-1.311,-1.3112,-1.3113,-1.3122,-1.3125,-1.3094,-1.3095,-1.3095,-1.3095,0,-1.2377,-1.2426,-1.245,-1.2529,-1.2569,-1.2613,-1.2675,-1.271,-1.2743,-1.2787,-1.285,-1.2912,-1.2982,-1.3001,-1.3034,-1.3076,-1.3079,-1.3097,-1.3111,-1.3111,-1.312,-1.3124,-1.3091,-1.3092,-1.3093,-1.3093,0,0,-1.2349,-1.2458,-1.2465,-1.2502,-1.2584,-1.2624,-1.2671,-1.2737,-1.2765,-1.2823,-1.2864,-1.2943,-1.296,-1.3002,-1.3041,-1.3068,-1.3082,-1.3084,-1.3087,-1.3082,-1.3134,-1.3119,-1.3122,-1.3103,-1.3104,-1.3105,-1.3128,0,-1.2364,-1.2447,-1.2498,-1.2562,-1.2609,-1.2658,-1.2699,-1.2754,-1.2797,-1.2845,-1.2893,-1.2948,-1.2967,-1.2992,-1.3021,-1.3074,-1.3094,-1.3073,-1.3144,-1.3146,-1.3125,-1.3127,-1.3112,-1.3131,-1.3132,-1.3132,-1.3133,0,-1.2392,-1.2446,-1.2514,-1.2591,-1.2612,-1.2648,-1.2713,-1.2757,-1.2822,-1.2851,-1.2897,-1.2937,-1.299,-1.2998,-1.3073,-1.3058,-1.309,-1.3121,-1.3123,-1.3132,-1.3139,-1.3136,-1.3138,-1.3141,-1.3139,-1.3139,-1.3138,0,-1.2365,-1.2456,-1.2508,-1.2538,-1.2629,-1.2653,-1.2692,-1.2756,-1.2792,-1.285,-1.2875,-1.2938,-1.2973,-1.3022,-1.3078,-1.3079,-1.3148,-1.3161,-1.3175,-1.3174,-1.3188,-1.3186,-1.3194,-1.3207,-1.3207,-1.3207,-1.3207,0,-1.2377,-1.2416,-1.2498,-1.253,-1.2576,-1.2635,-1.268,-1.2724,-1.278,-1.2823,-1.287,-1.291,-1.2981,-1.303,-1.3075,-1.313,-1.3146,-1.3172,-1.3184,-1.3168,-1.3165,-1.319,-1.3191,-1.3208,-1.3208,-1.3208,-1.3207,0,-1.2355,-1.2411,-1.2471,-1.2551,-1.2572,-1.2603,-1.2673,-1.2707,-1.2752,-1.2806,-1.2822,-1.2894,-1.2955,-1.3015,-1.3097,-1.3127,-1.3182,-1.3197,-1.3159,-1.3166,-1.3177,-1.3175,-1.3202,-1.3209,-1.3216,-1.3216,-1.3216,0,-1.2358,-1.239,-1.2473,-1.2504,-1.2541,-1.2591,-1.2629,-1.2688,-1.2725,-1.2801,-1.2826,-1.289,-1.2943,-1.3038,-1.3099,-1.3162,-1.3179,-1.3184,-1.3189,-1.3173,-1.318,-1.3177,-1.3181,-1.3182,-1.3182,-1.3182,-1.3181,0,-1.2359,-1.2385,-1.2436,-1.2496,-1.2539,-1.259,-1.2643,-1.2667,-1.2737,-1.2776,-1.2837,-1.2879,-1.2962,-1.3025,-1.3095,-1.3138,-1.3172,-1.3179,-1.3186,-1.3171,-1.3148,-1.3161,-1.3154,-1.3179,-1.3179,-1.3179,-1.3179,-1.3179,-1.2351,-1.2381,-1.2444,-1.2499,-1.2545,-1.2593,-1.2629,-1.2679,-1.273,-1.2801,-1.2833,-1.2895,-1.296,-1.3057,-1.3099,-1.315,-1.3159,-1.3168,-1.3171,-1.3173,-1.3169,-1.3139,-1.3163,-1.3163,-1.3163,-1.3163,-1.3163,0,-1.2354,-1.2397,-1.2447,-1.2519,-1.2562,-1.2589,-1.2649,-1.2685,-1.2738,-1.2794,-1.2846,-1.2917,-1.2978,-1.3043,-1.3109,-1.3137,-1.3154,-1.3152,-1.3151,-1.316,-1.3157,-1.3145,-1.3137,-1.3137,-1.3137,-1.3137,-1.3137,-1.3137,-1.2361,-1.2414,-1.2447,-1.2524,-1.2567,-1.2626,-1.2658,-1.2704,-1.275,-1.2826,-1.2876,-1.2918,-1.2979,-1.3049,-1.3107,-1.3125,-1.3147,-1.314,-1.3163,-1.3159,-1.316,-1.3162,-1.3151,-1.3145,-1.3145,-1.3162,-1.3162,-1.3162]},{"header":{"parameterUnit":"m.s-1","parameterCategory":1,"la1":30.2991,"la2":30.254,"lo1":-89.0895,"lo2":-89.0444,"dy":0.0017,"dx":0.0017,"nx":28,"ny":28,"refTime":"2025-01-31T09:00:00:Z","depth":0,"parameterNumber":3,"parameterNumberName":"V-component_of_WINDS"},"data":[0,0,0,0,0,0,0,0,0,0,0,0,0,0,0,0,0,0,0,0,0,0,0,0,0,0,0,0,0,0,0,0,0,0,0,0,0,0,0,0,0,0,0,0,0,0,0,0,0,0,0,0,0,0,0,0,0,0,5.2823,5.2822,0,5.2727,5.2726,5.2725,5.2623,5.2621,5.262,5.2618,5.2517,5.2515,5.2514,0,0,0,0,0,0,0,0,0,0,0,0,0,5.2915,5.2914,5.2823,5.2822,5.282,5.2727,5.2726,5.2725,5.2623,5.2621,5.2619,5.2618,5.2517,5.2515,5.2514,0,0,0,0,0,0,0,0,0,0,0,0,0,5.2853,5.2913,5.2823,5.2759,5.2752,5.2728,5.2726,5.2724,5.2623,5.2621,5.2619,5.2617,5.2518,5.2516,5.2514,5.2544,0,0,5.2507,5.2506,0,0,0,0,0,0,0,0,5.2856,5.2849,5.2769,5.2763,5.2755,5.2685,5.2721,5.2664,5.2624,5.2672,5.2618,5.2616,5.2574,5.2567,5.2554,5.2539,5.2535,5.2507,5.2506,5.2505,5.2504,0,0,0,0,0,0,0,5.2861,5.2853,5.2785,5.2768,5.276,5.2734,5.2722,5.271,5.2636,5.2668,5.266,5.265,5.257,5.2556,5.2551,5.2533,5.2507,5.2505,5.2504,5.2503,5.2542,5.2544,0,0,0,0,0,0,5.2875,5.2857,5.2788,5.2782,5.2802,5.2734,5.2721,5.2709,5.2636,5.2623,5.2652,5.2646,5.2561,5.2553,5.2547,5.258,5.2505,5.2503,5.2502,5.2539,5.2542,5.2544,0,0,0,0,0,0,5.2878,5.287,5.2792,5.2818,5.2806,5.2734,5.2722,5.2709,5.2695,5.2624,5.261,5.2652,5.2559,5.255,5.2546,5.2575,5.2502,5.25,5.2537,5.254,5.2543,5.2646,0,0,0,0,0,0,5.2881,5.2872,5.2883,5.2819,5.2805,5.2794,5.2724,5.2708,5.2692,5.2683,5.262,5.2608,5.2556,5.255,5.2544,5.2571,5.2499,5.2534,5.2538,5.2542,5.2639,5.2652,5.2663,0,0,0,0,0,5.2884,5.2914,5.2884,5.2876,5.2818,5.2796,5.2788,5.2729,5.2695,5.2706,5.2661,5.261,5.2572,5.2551,5.2543,5.257,5.2532,5.2537,5.2542,5.2634,5.265,5.2663,0,0,0,0,0,0,5.2982,5.2905,5.287,5.288,5.2846,5.2779,5.2791,5.2747,5.272,5.2712,5.2639,5.2625,5.2632,5.2599,5.2577,5.2596,5.2545,5.2549,5.2618,5.2632,5.2643,5.2652,5.2497,0,0,0,0,0,5.3005,5.2995,5.2927,5.2942,5.2927,5.2862,5.285,5.2808,5.2769,5.2753,5.2708,5.2671,5.2651,5.2639,5.2616,5.2634,5.262,5.2648,5.266,5.267,5.2675,5.2684,5.2697,5.2561,5.2561,5.2561,0,0,5.3052,5.3008,5.3006,5.2961,5.2929,5.2921,5.285,5.2843,5.2836,5.2751,5.2747,5.2713,5.2666,5.2675,5.2676,5.2648,5.2709,5.2676,5.2685,5.2684,5.2691,5.2704,5.2715,5.2565,5.2564,5.2563,0,0,5.3133,5.3099,5.3109,5.3079,5.3033,5.299,5.2993,5.2932,5.2907,5.2901,5.2839,5.2828,5.2794,5.2765,5.2746,5.2818,5.2772,5.2812,5.2875,5.2885,5.2895,5.2905,5.2933,5.2944,5.2817,5.2817,5.2817,0,5.3198,5.3183,5.312,5.3118,5.31,5.3025,5.3036,5.3009,5.2957,5.2947,5.2916,5.2875,5.2838,5.284,5.2858,5.2843,5.2845,5.282,5.2899,5.2908,5.2915,5.2942,5.2952,5.2823,5.2822,5.2822,5.2821,0,5.3265,5.3256,5.3269,5.3224,5.3208,5.3212,5.3149,5.314,5.3099,5.306,5.3056,5.3009,5.2977,5.2974,5.2933,5.297,5.2955,5.2913,5.286,5.2935,5.2959,5.2968,5.2831,5.2829,5.2827,5.2826,0,0,5.3406,5.3327,5.3333,5.3313,5.3257,5.3248,5.3249,5.3219,5.3214,5.318,5.318,5.3154,5.3116,5.3094,5.3049,5.3057,5.3121,5.3014,5.3012,5.3038,5.3162,5.3197,5.3209,5.3089,5.3091,5.3092,5.3167,0,5.348,5.3479,5.3423,5.3437,5.3429,5.3358,5.3358,5.3324,5.3287,5.3274,5.3231,5.3216,5.3165,5.3152,5.3157,5.3113,5.3146,5.3106,5.3089,5.3089,5.3106,5.3221,5.3256,5.333,5.3176,5.3177,5.3178,0,5.3566,5.3541,5.3556,5.3501,5.3495,5.3497,5.3467,5.3455,5.3414,5.3387,5.3364,5.3313,5.331,5.3259,5.3254,5.3229,5.3218,5.3196,5.3197,5.3195,5.314,5.3225,5.3351,5.3364,5.3192,5.319,5.3189,0,5.3672,5.364,5.3646,5.363,5.3566,5.3569,5.3542,5.35,5.3487,5.3459,5.345,5.3422,5.3407,5.3386,5.333,5.3297,5.3332,5.3276,5.331,5.3312,5.3323,5.3323,5.3453,5.3312,5.3312,5.3311,5.3311,0,5.3762,5.3774,5.3693,5.3697,5.3709,5.3643,5.3657,5.3622,5.3586,5.3581,5.3516,5.3513,5.3438,5.3426,5.3381,5.3386,5.3378,5.3357,5.3345,5.3364,5.3368,5.3358,5.3353,5.3314,5.3314,5.3313,5.3313,0,5.3883,5.3829,5.383,5.377,5.3755,5.3767,5.3715,5.3716,5.3675,5.367,5.3665,5.3601,5.3584,5.3525,5.3492,5.3463,5.3482,5.3458,5.3497,5.349,5.3529,5.3527,5.3659,5.3674,5.3521,5.3523,5.3524,0,5.3946,5.3954,5.3895,5.3889,5.3866,5.3855,5.3842,5.3777,5.3766,5.3722,5.3728,5.3707,5.3686,5.3663,5.3613,5.3588,5.3564,5.3612,5.356,5.358,5.3569,5.357,5.3572,5.3624,5.3626,5.3628,5.3629,0,5.4064,5.4037,5.4021,5.3997,5.3983,5.396,5.3933,5.3931,5.3859,5.3849,5.3833,5.3817,5.3786,5.3766,5.3734,5.3704,5.3656,5.3646,5.3653,5.3674,5.3698,5.3689,5.3531,5.3644,5.3642,5.3641,5.364,5.364,5.4159,5.4164,5.4125,5.411,5.4083,5.406,5.4059,5.4018,5.4004,5.3975,5.3937,5.3926,5.3885,5.3838,5.3813,5.3802,5.3775,5.3785,5.3788,5.3792,5.3803,5.3697,5.3796,5.3795,5.3795,5.3794,5.3794,0,5.4277,5.4248,5.4235,5.4201,5.4189,5.4145,5.4113,5.4106,5.4097,5.4065,5.4047,5.4028,5.4009,5.3958,5.3933,5.3935,5.3912,5.3931,5.3932,5.3927,5.3827,5.3825,5.395,5.395,5.395,5.395,5.395,5.395,5.4337,5.4345,5.4313,5.4307,5.4277,5.4267,5.4254,5.4232,5.4206,5.4189,5.4174,5.4141,5.4101,5.4073,5.4053,5.4039,5.4034,5.4061,5.404,5.3948,5.3933,5.3919,5.3917,5.406,5.406,5.414,5.4141,5.4142]}]]